VAW9908 DAAG-LBPD

Flight info

Callsign VAW9908
Flight time 2h 28m
Altitude 38000
Route BOURI1C BOURI UG26 REQIN DCT TABOT DCT ALEDI DCT VELEX DCT TAGEL DCT LUNAR DCT LUXIL/N0442F390 DCT EBELA DCT BONZI DCT SIN DCT VELBA T343 MOREK DCT RUMEN
Aircraft A320/M-SDE3FGHIRWY/LB1

Departure

Time 2026-05-04 14:19
Airport Houari Boumediene Airport (DAAG)

Arrival

Time 2026-05-04 16:47
Airport Plovdiv International Airport (LBPD)
Time Latitude Longitude Altitude Speed Heading
2026-05-04 14:03 36.69606 3.19810 70 ft 0 kts 272°
2026-05-04 14:11 36.69605 3.19841 77 ft 4 kts 266°
2026-05-04 14:11 36.69609 3.19875 61 ft 4 kts 252°
2026-05-04 14:12 36.69620 3.19901 60 ft 4 kts 207°
2026-05-04 14:12 36.69629 3.19905 62 ft 0 kts 181°
2026-05-04 14:14 36.69469 3.19899 70 ft 15 kts 182°
2026-05-04 14:14 36.69364 3.19895 68 ft 15 kts 180°
2026-05-04 14:15 36.69301 3.20129 71 ft 23 kts 91°
2026-05-04 14:15 36.69293 3.20575 69 ft 26 kts 91°
2026-05-04 14:16 36.69282 3.21037 70 ft 26 kts 92°
2026-05-04 14:16 36.69279 3.21254 70 ft 20 kts 83°
2026-05-04 14:17 36.69462 3.21583 67 ft 26 kts 52°
2026-05-04 14:17 36.69573 3.21770 69 ft 26 kts 52°
2026-05-04 14:17 36.69582 3.21947 70 ft 14 kts 157°
2026-05-04 14:18 36.69464 3.21999 77 ft 17 kts 158°
2026-05-04 14:18 36.69674 3.22491 74 ft 88 kts 52°
2026-05-04 14:19 36.70898 3.24422 905 ft 160 kts 36°
2026-05-04 14:19 36.71953 3.24913 1641 ft 175 kts 359°
2026-05-04 14:19 36.73237 3.24644 2200 ft 199 kts 348°
2026-05-04 14:19 36.74661 3.24251 2781 ft 221 kts 347°
2026-05-04 14:20 36.76269 3.24219 3369 ft 247 kts 14°
2026-05-04 14:20 36.78000 3.24875 4062 ft 272 kts 19°
2026-05-04 14:20 36.79815 3.25641 4999 ft 285 kts 19°
2026-05-04 14:21 36.83678 3.27303 7123 ft 301 kts 17°
2026-05-04 14:21 36.85684 3.28150 8189 ft 308 kts 15°
2026-05-04 14:21 36.87734 3.29002 9287 ft 313 kts 14°
2026-05-04 14:21 36.89821 3.29864 10314 ft 321 kts 13°
2026-05-04 14:22 36.92024 3.30763 10812 ft 346 kts 13°
2026-05-04 14:22 36.94386 3.31721 11362 ft 365 kts 13°
2026-05-04 14:22 36.96830 3.32721 12218 ft 374 kts 13°
2026-05-04 14:22 36.99321 3.33748 13118 ft 380 kts 13°
2026-05-04 14:23 37.04429 3.35865 14785 ft 392 kts 13°
2026-05-04 14:23 37.07032 3.36952 15595 ft 397 kts 13°
2026-05-04 14:23 37.09666 3.38054 16406 ft 401 kts 13°
2026-05-04 14:24 37.12324 3.39198 17213 ft 408 kts 17°
2026-05-04 14:24 37.14888 3.40829 17990 ft 418 kts 29°
2026-05-04 14:24 37.17213 3.43065 18715 ft 427 kts 41°
2026-05-04 14:24 37.19194 3.45869 19437 ft 433 kts 53°
2026-05-04 14:25 37.20857 3.49032 20157 ft 436 kts 57°
2026-05-04 14:25 37.24184 3.55472 21601 ft 444 kts 56°
2026-05-04 14:25 37.25873 3.58738 22312 ft 447 kts 56°
2026-05-04 14:26 37.27577 3.62023 23001 ft 451 kts 56°
2026-05-04 14:26 37.29299 3.65334 23655 ft 455 kts 56°
2026-05-04 14:26 37.31034 3.68674 24194 ft 459 kts 56°
2026-05-04 14:26 37.32780 3.72043 24706 ft 462 kts 56°
2026-05-04 14:27 37.34538 3.75445 25230 ft 466 kts 56°
2026-05-04 14:27 37.36305 3.78874 25712 ft 469 kts 56°
2026-05-04 14:27 37.38059 3.82291 26187 ft 472 kts 56°
2026-05-04 14:27 37.39842 3.85773 26681 ft 475 kts 56°
2026-05-04 14:28 37.41637 3.89277 27178 ft 478 kts 56°
2026-05-04 14:28 37.43445 3.92804 27645 ft 481 kts 56°
2026-05-04 14:28 37.45269 3.96360 28111 ft 485 kts 56°
2026-05-04 14:28 37.47102 3.99933 28557 ft 488 kts 57°
2026-05-04 14:29 37.50796 4.07155 29409 ft 494 kts 57°
2026-05-04 14:29 37.54531 4.14483 30187 ft 500 kts 57°
2026-05-04 14:30 37.56408 4.18173 30507 ft 502 kts 57°
2026-05-04 14:30 37.58302 4.21895 30797 ft 505 kts 57°
2026-05-04 14:30 37.62104 4.29388 31388 ft 510 kts 57°
2026-05-04 14:31 37.64017 4.33162 31705 ft 511 kts 57°
2026-05-04 14:31 37.67836 4.40703 32514 ft 509 kts 57°
2026-05-04 14:32 37.71634 4.48224 33288 ft 508 kts 57°
2026-05-04 14:32 37.73533 4.51992 33672 ft 508 kts 57°
2026-05-04 14:32 37.75428 4.55753 34056 ft 508 kts 57°
2026-05-04 14:32 37.77321 4.59515 34377 ft 508 kts 56°
2026-05-04 14:33 37.79211 4.63283 34709 ft 508 kts 56°
2026-05-04 14:33 37.81104 4.67061 35036 ft 508 kts 56°
2026-05-04 14:33 37.82994 4.70837 35356 ft 508 kts 56°
2026-05-04 14:33 37.84884 4.74616 35668 ft 509 kts 56°
2026-05-04 14:34 37.86774 4.78397 36010 ft 508 kts 57°
2026-05-04 14:34 37.88663 4.82179 36330 ft 508 kts 57°
2026-05-04 14:34 37.90528 4.85916 36630 ft 508 kts 56°
2026-05-04 14:34 37.92416 4.89698 36920 ft 508 kts 56°
2026-05-04 14:35 37.94358 4.93435 37206 ft 507 kts 51°
2026-05-04 14:35 37.96618 4.96850 37475 ft 505 kts 44°
2026-05-04 14:35 37.99007 5.00112 37759 ft 505 kts 43°
2026-05-04 14:35 38.01453 5.03316 37978 ft 505 kts 41°
2026-05-04 14:36 38.03964 5.06420 38019 ft 504 kts 40°
2026-05-04 14:36 38.09084 5.12461 38028 ft 502 kts 39°
2026-05-04 14:37 38.14197 5.18512 38019 ft 502 kts 40°
2026-05-04 14:37 38.19244 5.24655 38016 ft 503 kts 40°
2026-05-04 14:38 38.24267 5.30849 38016 ft 503 kts 40°
2026-05-04 14:38 38.29296 5.37029 38020 ft 503 kts 40°
2026-05-04 14:39 38.34342 5.43201 38028 ft 503 kts 40°
2026-05-04 14:39 38.39373 5.49388 38029 ft 503 kts 40°
2026-05-04 14:40 38.46914 5.58694 38032 ft 503 kts 40°
2026-05-04 14:40 38.51936 5.64917 38045 ft 503 kts 40°
2026-05-04 14:41 38.56918 5.71098 38026 ft 503 kts 40°
2026-05-04 14:42 38.66944 5.83544 38034 ft 502 kts 40°
2026-05-04 14:42 38.71946 5.89783 38033 ft 502 kts 40°
2026-05-04 14:43 38.76097 5.94967 38057 ft 502 kts 40°
2026-05-04 14:43 38.81089 6.01208 38041 ft 501 kts 40°
2026-05-04 14:44 38.86078 6.07460 38035 ft 501 kts 40°
2026-05-04 14:44 38.91054 6.13709 38027 ft 500 kts 40°
2026-05-04 14:45 38.95917 6.20099 38043 ft 503 kts 48°
2026-05-04 14:45 38.99465 6.27882 38038 ft 508 kts 68°
2026-05-04 14:46 39.01079 6.36702 38033 ft 508 kts 84°
2026-05-04 14:46 39.01922 6.45710 38031 ft 508 kts 84°
2026-05-04 14:47 39.02754 6.54722 38022 ft 508 kts 84°
2026-05-04 14:47 39.03563 6.63748 38023 ft 508 kts 84°
2026-05-04 14:48 39.04365 6.72769 38029 ft 508 kts 84°
2026-05-04 14:48 39.05169 6.81798 38030 ft 508 kts 84°
2026-05-04 14:49 39.05962 6.90823 38031 ft 508 kts 84°
2026-05-04 14:49 39.06750 6.99857 38039 ft 508 kts 84°
2026-05-04 14:50 39.07538 7.08884 38038 ft 508 kts 84°
2026-05-04 14:50 39.08307 7.17915 38038 ft 508 kts 84°
2026-05-04 14:51 39.09073 7.26953 38039 ft 508 kts 84°
2026-05-04 14:51 39.09831 7.35992 38039 ft 508 kts 84°
2026-05-04 14:52 39.10581 7.45021 38043 ft 508 kts 84°
2026-05-04 14:52 39.11323 7.54062 38053 ft 508 kts 84°
2026-05-04 14:53 39.12066 7.63098 38039 ft 508 kts 84°
2026-05-04 14:53 39.12797 7.72093 38037 ft 508 kts 84°
2026-05-04 14:54 39.13516 7.81149 38043 ft 509 kts 84°
2026-05-04 14:54 39.14234 7.90219 38041 ft 509 kts 84°
2026-05-04 14:55 39.15031 7.99272 38032 ft 508 kts 78°
2026-05-04 14:55 39.16946 8.08002 38045 ft 506 kts 71°
2026-05-04 14:56 39.19022 8.16679 38047 ft 506 kts 71°
2026-05-04 14:56 39.21084 8.25364 38051 ft 506 kts 71°
2026-05-04 14:57 39.23146 8.34043 38051 ft 506 kts 71°
2026-05-04 14:57 39.25205 8.42715 38053 ft 505 kts 71°
2026-05-04 14:58 39.27252 8.51383 38073 ft 505 kts 71°
2026-05-04 14:58 39.29296 8.60055 38073 ft 505 kts 71°
2026-05-04 14:59 39.31336 8.68738 38068 ft 505 kts 71°
2026-05-04 15:00 39.34368 8.81766 38068 ft 504 kts 71°
2026-05-04 15:00 39.36375 8.90442 38072 ft 504 kts 71°
2026-05-04 15:01 39.39388 9.03468 38070 ft 504 kts 71°
2026-05-04 15:01 39.41376 9.12094 38067 ft 504 kts 71°
2026-05-04 15:02 39.43367 9.20769 38078 ft 503 kts 71°
2026-05-04 15:02 39.45351 9.29447 38092 ft 503 kts 71°
2026-05-04 15:03 39.47324 9.38117 38134 ft 502 kts 71°
2026-05-04 15:03 39.49282 9.46792 38135 ft 502 kts 71°
2026-05-04 15:04 39.51234 9.55470 38136 ft 502 kts 71°
2026-05-04 15:04 39.53181 9.64137 38134 ft 501 kts 71°
2026-05-04 15:05 39.55128 9.72809 38122 ft 501 kts 71°
2026-05-04 15:05 39.57059 9.81479 38112 ft 501 kts 71°
2026-05-04 15:06 39.58980 9.90149 38095 ft 500 kts 71°
2026-05-04 15:07 39.61880 10.03125 38110 ft 499 kts 69°
2026-05-04 15:07 39.64011 10.11664 38099 ft 497 kts 68°
2026-05-04 15:08 39.66209 10.20162 38098 ft 497 kts 68°
2026-05-04 15:08 39.68354 10.28684 38099 ft 496 kts 68°
2026-05-04 15:09 39.70453 10.37217 38102 ft 496 kts 69°
2026-05-04 15:09 39.72539 10.45739 38102 ft 495 kts 69°
2026-05-04 15:10 39.75670 10.58516 38107 ft 494 kts 68°
2026-05-04 15:11 39.78794 10.71288 38109 ft 494 kts 68°
2026-05-04 15:11 39.80859 10.79811 38107 ft 495 kts 68°
2026-05-04 15:12 39.82901 10.88296 38110 ft 495 kts 68°
2026-05-04 15:12 39.84958 10.96837 38110 ft 495 kts 68°
2026-05-04 15:13 39.87023 11.05387 38116 ft 495 kts 68°
2026-05-04 15:13 39.89076 11.13937 38117 ft 495 kts 68°
2026-05-04 15:14 39.91108 11.22507 38117 ft 495 kts 69°
2026-05-04 15:14 39.93138 11.31072 38130 ft 495 kts 68°
2026-05-04 15:15 39.95175 11.39639 38120 ft 495 kts 68°
2026-05-04 15:15 39.97174 11.48226 38124 ft 496 kts 70°
2026-05-04 15:16 39.99639 11.61362 38129 ft 498 kts 73°
2026-05-04 15:17 40.01953 11.74550 38137 ft 496 kts 72°
2026-05-04 15:17 40.04394 11.87655 38144 ft 495 kts 72°
2026-05-04 15:18 40.06016 11.96384 38141 ft 495 kts 72°
2026-05-04 15:19 40.08393 12.09474 38150 ft 493 kts 72°
2026-05-04 15:19 40.10747 12.22493 38157 ft 490 kts 72°
2026-05-04 15:20 40.12296 12.31085 38151 ft 489 kts 72°
2026-05-04 15:20 40.13839 12.39729 38151 ft 488 kts 72°
2026-05-04 15:21 40.15355 12.48357 38155 ft 487 kts 72°
2026-05-04 15:22 40.17572 12.61304 38155 ft 486 kts 72°
2026-05-04 15:22 40.19764 12.74229 38151 ft 485 kts 72°
2026-05-04 15:23 40.21225 12.82853 38160 ft 486 kts 72°
2026-05-04 15:23 40.22683 12.91486 38153 ft 486 kts 72°
2026-05-04 15:24 40.25586 13.08787 38151 ft 487 kts 72°
2026-05-04 15:25 40.27025 13.17446 38153 ft 487 kts 72°
2026-05-04 15:26 40.29161 13.30435 38143 ft 486 kts 72°
2026-05-04 15:26 40.31292 13.43412 38149 ft 486 kts 72°
2026-05-04 15:27 40.33412 13.56408 38168 ft 486 kts 72°
2026-05-04 15:28 40.35499 13.69364 38153 ft 487 kts 72°
2026-05-04 15:29 40.37587 13.82396 38159 ft 487 kts 72°
2026-05-04 15:30 40.42407 14.12824 38161 ft 486 kts 72°
2026-05-04 15:31 40.44212 14.24403 38170 ft 486 kts 72°
2026-05-04 15:32 40.47582 14.46150 38165 ft 486 kts 73°
2026-05-04 15:34 40.50905 14.67922 38157 ft 486 kts 73°
2026-05-04 15:34 40.52885 14.81002 38154 ft 487 kts 73°
2026-05-04 15:35 40.54841 14.94096 38172 ft 487 kts 73°
2026-05-04 15:36 40.56788 15.07192 38172 ft 486 kts 73°
2026-05-04 15:36 40.58078 15.15912 38177 ft 486 kts 73°
2026-05-04 15:37 40.59353 15.24637 38171 ft 486 kts 73°
2026-05-04 15:37 40.60623 15.33362 38183 ft 485 kts 73°
2026-05-04 15:38 40.61891 15.42063 38167 ft 484 kts 73°
2026-05-04 15:38 40.63158 15.50768 38165 ft 484 kts 73°
2026-05-04 15:39 40.64410 15.59474 38154 ft 484 kts 73°
2026-05-04 15:40 40.66257 15.72526 38172 ft 483 kts 73°
2026-05-04 15:40 40.67488 15.81207 38148 ft 482 kts 73°
2026-05-04 15:41 40.68716 15.89880 38162 ft 481 kts 73°
2026-05-04 15:41 40.69924 15.98490 38148 ft 481 kts 73°
2026-05-04 15:42 40.71137 16.07204 38148 ft 480 kts 74°
2026-05-04 15:42 40.72316 16.15795 38141 ft 479 kts 74°
2026-05-04 15:43 40.73495 16.24432 38135 ft 478 kts 74°
2026-05-04 15:43 40.74678 16.33053 38133 ft 478 kts 74°
2026-05-04 15:44 40.75855 16.41670 38146 ft 477 kts 75°
2026-05-04 15:44 40.77023 16.50287 38147 ft 477 kts 75°
2026-05-04 15:45 40.78178 16.58890 38149 ft 476 kts 75°
2026-05-04 15:45 40.79325 16.67488 38149 ft 476 kts 75°
2026-05-04 15:46 40.80467 16.76084 38164 ft 475 kts 75°
2026-05-04 15:46 40.81593 16.84664 38159 ft 474 kts 75°
2026-05-04 15:47 40.82891 16.93169 38151 ft 471 kts 71°
2026-05-04 15:47 40.84570 17.01503 38147 ft 469 kts 69°
2026-05-04 15:48 40.86301 17.09805 38150 ft 469 kts 70°
2026-05-04 15:48 40.88710 17.22333 38141 ft 469 kts 71°
2026-05-04 15:49 40.89477 17.26462 38362 ft 469 kts 71°
2026-05-04 15:49 40.90267 17.30707 38650 ft 470 kts 71°
2026-05-04 15:49 40.91042 17.34841 38901 ft 470 kts 71°
2026-05-04 15:49 40.91833 17.39035 39064 ft 471 kts 71°
2026-05-04 15:50 40.93416 17.47417 39124 ft 469 kts 71°
2026-05-04 15:50 40.94988 17.55783 39119 ft 468 kts 71°
2026-05-04 15:51 40.96546 17.64145 39119 ft 468 kts 71°
2026-05-04 15:51 40.98092 17.72517 39120 ft 468 kts 71°
2026-05-04 15:52 40.99638 17.80885 39128 ft 467 kts 71°
2026-05-04 15:52 41.01178 17.89240 39138 ft 466 kts 72°
2026-05-04 15:53 41.02707 17.97580 39134 ft 466 kts 72°
2026-05-04 15:53 41.04229 18.05917 39131 ft 465 kts 72°
2026-05-04 15:54 41.05740 18.14245 39126 ft 465 kts 72°
2026-05-04 15:54 41.07242 18.22575 39124 ft 465 kts 72°
2026-05-04 15:55 41.08739 18.30911 39122 ft 465 kts 72°
2026-05-04 15:55 41.10232 18.39240 39121 ft 464 kts 72°
2026-05-04 15:56 41.11720 18.47567 39137 ft 464 kts 72°
2026-05-04 15:56 41.13194 18.55880 39136 ft 462 kts 72°
2026-05-04 15:57 41.14662 18.64176 39133 ft 462 kts 72°
2026-05-04 15:57 41.16124 18.72464 39130 ft 461 kts 72°
2026-05-04 15:58 41.17563 18.80691 39137 ft 460 kts 73°
2026-05-04 15:58 41.19000 18.88970 39134 ft 460 kts 73°
2026-05-04 15:59 41.20567 18.97172 39129 ft 457 kts 70°
2026-05-04 15:59 41.22407 19.05242 39126 ft 456 kts 68°
2026-05-04 16:00 41.24271 19.13294 39139 ft 456 kts 69°
2026-05-04 16:00 41.26058 19.21387 39132 ft 456 kts 70°
2026-05-04 16:01 41.27802 19.29494 39128 ft 456 kts 70°
2026-05-04 16:01 41.29549 19.37600 39121 ft 456 kts 70°
2026-05-04 16:02 41.31298 19.45706 39118 ft 456 kts 70°
2026-05-04 16:03 41.33914 19.57856 39130 ft 455 kts 70°
2026-05-04 16:03 41.35642 19.65959 39127 ft 455 kts 70°
2026-05-04 16:04 41.37362 19.74060 39158 ft 454 kts 70°
2026-05-04 16:04 41.39931 19.86203 39159 ft 454 kts 70°
2026-05-04 16:05 41.41645 19.94294 39146 ft 454 kts 70°
2026-05-04 16:06 41.44196 20.06438 39140 ft 454 kts 70°
2026-05-04 16:07 41.47567 20.22613 39139 ft 452 kts 71°
2026-05-04 16:08 41.50904 20.38769 39135 ft 451 kts 71°
2026-05-04 16:09 41.55482 20.58741 39148 ft 449 kts 67°
2026-05-04 16:10 41.59511 20.74505 39144 ft 448 kts 68°
2026-05-04 16:11 41.63372 20.90330 39151 ft 447 kts 68°
2026-05-04 16:12 41.69142 21.13961 39147 ft 446 kts 68°
2026-05-04 16:13 41.72962 21.29787 39127 ft 447 kts 68°
2026-05-04 16:14 41.76783 21.45719 39114 ft 448 kts 68°
2026-05-04 16:16 41.81514 21.65548 39098 ft 448 kts 69°
2026-05-04 16:17 41.86217 21.85470 39124 ft 448 kts 69°
2026-05-04 16:18 41.89946 22.01389 39119 ft 446 kts 69°
2026-05-04 16:19 41.94254 22.19915 39128 ft 446 kts 69°
2026-05-04 16:20 41.97990 22.40104 39110 ft 453 kts 87°
2026-05-04 16:22 41.97435 22.61317 39119 ft 455 kts 89°
2026-05-04 16:23 41.97931 22.86619 39122 ft 447 kts 68°
2026-05-04 16:24 42.05171 22.99641 39118 ft 437 kts 42°
2026-05-04 16:25 42.09493 23.05400 39122 ft 437 kts 43°
2026-05-04 16:26 42.24503 23.25580 39145 ft 435 kts 44°
2026-05-04 16:27 42.27934 23.32321 39144 ft 441 kts 64°
2026-05-04 16:28 42.29408 23.44578 38450 ft 447 kts 86°
2026-05-04 16:28 42.29605 23.57189 35821 ft 447 kts 87°
2026-05-04 16:29 42.29855 23.74078 31245 ft 450 kts 90°
2026-05-04 16:30 42.30008 23.86495 28596 ft 427 kts 89°
2026-05-04 16:31 42.30112 23.94379 27084 ft 413 kts 88°
2026-05-04 16:31 42.30251 24.05796 24915 ft 399 kts 87°
2026-05-04 16:32 42.30367 24.16918 22836 ft 389 kts 87°
2026-05-04 16:33 42.30436 24.24123 21677 ft 378 kts 86°
2026-05-04 16:33 42.30280 24.31130 20579 ft 371 kts 96°
2026-05-04 16:34 42.28720 24.37773 19398 ft 370 kts 106°
2026-05-04 16:34 42.27835 24.40974 18800 ft 368 kts 105°
2026-05-04 16:35 42.25182 24.50637 16839 ft 362 kts 105°
2026-05-04 16:35 42.22573 24.60103 14937 ft 356 kts 106°
2026-05-04 16:36 42.21708 24.63224 14308 ft 354 kts 106°
2026-05-04 16:36 42.19991 24.69420 13014 ft 350 kts 106°
2026-05-04 16:37 42.18302 24.75485 11721 ft 342 kts 106°
2026-05-04 16:37 42.17467 24.78475 11046 ft 339 kts 106°
2026-05-04 16:37 42.15842 24.84281 10344 ft 316 kts 106°
2026-05-04 16:38 42.14351 24.89538 10018 ft 289 kts 108°
2026-05-04 16:39 42.11074 24.95955 9461 ft 264 kts 122°
2026-05-04 16:39 42.08859 24.99855 8733 ft 260 kts 122°
2026-05-04 16:40 42.06679 25.03693 7973 ft 255 kts 122°
2026-05-04 16:40 42.04529 25.07477 7170 ft 254 kts 123°
2026-05-04 16:41 42.02110 25.10861 6378 ft 261 kts 154°
2026-05-04 16:41 41.97298 25.08743 5070 ft 246 kts 219°
2026-05-04 16:42 41.96039 25.03621 3913 ft 202 kts 315°
2026-05-04 16:43 41.97861 25.00810 3322 ft 195 kts 309°
2026-05-04 16:43 41.99378 24.98128 2786 ft 163 kts 309°
2026-05-04 16:43 42.00039 24.96966 2563 ft 149 kts 309°
2026-05-04 16:44 42.02263 24.93055 1867 ft 124 kts 309°
2026-05-04 16:45 42.03293 24.91242 1554 ft 121 kts 308°
2026-05-04 16:46 42.04816 24.88558 1023 ft 121 kts 309°
2026-05-04 16:46 42.05824 24.86780 734 ft 118 kts 309°
2026-05-04 16:47 42.06748 24.85148 581 ft 81 kts 307°
2026-05-04 16:47 42.07099 24.84667 582 ft 15 kts 350°
2026-05-04 16:48 42.07413 24.84525 581 ft 17 kts 307°
2026-05-04 16:48 42.07478 24.84407 581 ft 16 kts 306°
2026-05-04 16:49 42.07558 24.84388 581 ft 7 kts 39°
2026-05-04 16:49 42.07587 24.84418 581 ft 0 kts 38°